INTELSAT 11 (IS-11)

Last updated on Wed Sep 09 2026 00:02:58 GMT+0000 (Coordinated Universal Time)

1 32253U 07044B 26251.51086421 -.00000226 00000+0 00000+0 0 9992 2 32253 3.7761 77.5932 0007292 126.9274 86.2718 0.99049080 69270
UTC large
Height (km)
Speed (km/s)
/
Latitude / Longitude
Inclination (degrees)
Orbital Period (minutes)
Azimuth
Elevation
Range (km)
Doppler Factor

Next 0 passes for location: London (51.5072 / 0.1276)

No passes found over London.
INTELSAT 11 (IS-11)